COSMOS 1275 DEB, 27733

Orbit data source: Space-Track

COSMOS 1275 DEB, 27733 is space debris in LEO originally from a launch on Thu, 04 Jun 1981 UTC launched from the Plesetsk Missile And Space Complex (PKMTR). Debris objects in space refer to the collection of defunct objects orbiting the Earth. Examples of debris include non-operational satellites, rocket bodies, and fragments generated from explosions, collisions, or faulty payload assembly.

Loading next visibility...
Identifier
27733, 1981-053MN
Orbit
LEO
Country
Flag of CISCIS
Related business
Manufacturer
Unknown
Mission
Spacecraft
Bus & Motor
Unknown
Mass
Unknown
Launch date (UTC)
1981-06-04 (44 years ago)
Launch vehicle
Unknown
Launch site
Plesetsk Missile And Space Complex (PKMTR)
Object type
Payload
Rocket body
Debris
Shape & HBR
Unknown shape, 0.1 m
Radar Cross Section
Small (<0.1 m²)

Expand to show TLE details & history
Last TLE update: 21 hours ago

TLE from 21 hours ago
0 COSMOS 1275 DEB
1 27733U 81053MN  25286.21670368  .00003581  00000-0  16594-2 0  9999
2 27733  83.1129  15.9005 0027394  32.0812 328.2030 14.20341216332290
Epoch: 2025-10-13T05:12Z
TLE epoch observation values (Epoch: 2025-10-13T05:12:03.197Z)
Latitude
-0.00004°
Longitude
-84.13549°
Altitude
810.409 km
Speed
7.457 km/s
True Right ascension
01h 03m 36s
True Declination
0° 00' 00"
Sunlit
Object was in full shadow at epoch
Visualization orbit readout
Latitude
Unknown
Longitude
Unknown
Altitude
Unknown
Speed
Unknown
Apparent Right ascension
Unknown
Apparent Declination
Unknown
Sunlit
N/A
Visualization observer readout
Local Sidereal Time
21:09:32
Azimuth
Unknown
Elevation
Unknown
Doppler factor
Unknown
Orbital elements
Apogee altitude
841.001 km
Perigee altitude
801.557 km
Semi-major axis
7,199.416 km
Eccentricity
0.00274
Inclination
83.1129°
RAAN
15.9005°
Arg. of periapsis
32.0812°
True anomaly
328.03711°
Mean anomaly
328.203°
Eccentric anomaly
328.12011°
Mean motion
3.55302 °/min
Orbital period
101.32 mins
BSTAR
0.0016594
Loading maneuver chart data...
Computing Atmospheric mass density...
Loading historical data...
Loading historical data...
Loading historical data...
Loading historical data...
Loading historical data...
Loading historical data...
Loading historical data...

Documentation

Showing up to 5 results
|